Regional Weather Roundup
Issued by NWS Goodland, KS

Home | Current Version | Previous Version | Graphics & Text | Print | Product List | Glossary On
Versions: 1 2 3 4 5 6 7 8 9 10 11 12 13 14 15 16 17 18 19 20 21 22 23 24 25 26 27 28 29 30 31 32 33 34 35 36 37 38 39 40 41 42 43 44 45 46 47 48 49 50
000
ASUS43 KGLD 232159
RWRGLD

GOODLAND FORECAST AREA HOURLY WEATHER ROUNDUP
NATIONAL WEATHER SERVICE GOODLAND KS
400 PM MDT TUE AUG 23 2016

...OFFICIAL OBSERVATIONS...

CITY           SKY/WX    TMP DP  RH WIND       PRES   REMARKS
GOODLAND KS    SUNNY     94  31  10 N13       29.91S
HILL CITY KS   SUNNY     94  59  31 SW8       29.80S
IMPERIAL NEB   SUNNY     91  35  13 N18       29.89R
MCCOOK NEB     SUNNY     93  61  34 CALM      29.82S
AKRON CO       SUNNY     87  26  11 N18G26    30.01R
BURLINGTON CO  SUNNY     94  21   7 N13G23    29.97R
LIMON CO       SUNNY     85  27  12 N13       30.07R
$$

...UNOFFICIAL OBSERVATIONS...

CITY           SKY/WX    TMP DP  RH WIND       PRES   REMARKS
COLBY KS       SUNNY     97  52  21 NW12G17   29.89S
LENORA KS        N/A     95  32  11 MISG        N/A
NORTON KS      SUNNY     95  52  23 W12       29.80R
SHARON SPRINGS   N/A     93  53  25 NE5         N/A
TRENTON NEB      N/A     94  32  11 MISG        N/A
KIT CARSON CO    N/A     92  34  13 MISG        N/A
YUMA CO          N/A     91  35  14 NE9         N/A
$$




USA.gov is the U.S. government's official web portal to all federal, state and local government web resources and services.